Location: Godzisko
(49.9648°N, 19.4576°E)
Time: 05:47:43
(UTC+00:00)

IDEFIX/ARIANE 42P - Pass Details

Date: 20 April 2021
Orbit: 785 x 803 km, 98.4° (Epoch: 05 May)

Event Time Altitude Azimuth Distance (km) Brightness Sun altitude
Rises 00:36:57 0° 23° (NNE) 3,297 7.2 -23.5°
Reaches altitude 10° 00:39:37 10° 35° (NE) 2,366 6.1 -23.3°
Maximum altitude 00:44:03 28° 93° (E) 1,471 4.2 -22.9°
Enters shadow 00:47:26 15° 143° (SE) 2,038 4.5 -22.6°
